Location: Juzet
(42.9779°N, 0.7597°E)
Time: 18:12:33
(UTC+00:00)

Aureole 1 Rocket - Pass Details

Date: 14 July 2020
Orbit: 377 x 1380 km, 73.9° (Epoch: 12 August)

Event Time Altitude Azimuth Distance (km) Brightness Sun altitude
Exits shadow 02:26:04 32° 232° (SW) 1,170 3.9 -17.5°
Maximum altitude 02:28:05 56° 296° (WNW) 880 3.7 -17.3°
Drops below altitude 10° 02:33:54 10° 14° (NNE) 2,624 7.3 -16.7°
Sets 02:36:52 0° 19° (NNE) 3,748 8.5 -16.3°
